Regional Weather Roundup
Issued by NWS

Home | Current Version | Previous Version | Graphics & Text | Print | Product List | Glossary On
Versions: 1 2 3 4 5 6 7 8 9 10 11 12 13 14 15 16 17 18 19 20 21 22 23 24 25 26 27 28 29 30 31 32 33 34 35 36 37 38 39 40 41 42 43 44 45 46 47 48 49 50
000
ASUS45 KCYS 262010
RWRWY

WYOMING REGIONAL WEATHER ROUNDUP
NATIONAL WEATHER SERVICE CHEYENNE WY
100 PM MST WED NOV 26 2014

NOTE:  "FAIR" INDICATES FEW OR NO CLOUDS BELOW 12,000 FEET
WITH NO SIGNIFICANT WEATHER AND/OR OBSTRUCTIONS TO VISIBILITY.

WYZ001-262100-
YELLOWSTONE NATIONAL PARK

CITY           SKY/WX    TMP DP  RH WIND       PRES   REMARKS
LK YELLOWSTONE   N/A     34  29  82 VRB6G18   30.22S WCI  29
W YELLOWSTONE  NOT AVBL

$$
WYZ002>013-054>058-071-098>099-262100-
NORTHERN WYOMING

CITY           SKY/WX    TMP DP  RH WIND       PRES   REMARKS
JACKSON        CLOUDY    39  34  81 S5        30.26R
CODY           CLOUDY    27  23  86 CALM      30.12F
GREYBULL       LGT SNOW  29  28  96 CALM      30.18S FOG
WORLAND        CLOUDY    27  25  92 CALM      30.17S
SHERIDAN       LGT SNOW  30  25  81 E3        30.17F
BUFFALO        CLOUDY    27  22  81 SE10      30.14S WCI  17
GILLETTE       FLURRIES  29  24  82 CALM      30.18S
HULETT           N/A    N/A N/A N/A MISG        N/A
NEWCASTLE      FAIR      32  25  74 W6        30.19S WCI  26

$$
WYZ014>020-022>026-101>103-262100-
CENTRAL WYOMING

CITY           SKY/WX    TMP DP  RH WIND       PRES   REMARKS
BIG PINEY      MOSUNNY  N/A N/A N/A NW20      30.26R
PINEDALE       PTCLDY    37  32  81 NW16      30.27R WCI  28
DUBOIS         CLOUDY    41  30  65 W37G49    30.13S
LANDER         MOSUNNY   38  30  73 CALM      30.09S
RIVERTON       SUNNY     32  28  85 S5        30.11S WCI  27
CASPER         SUNNY     30  21  69 E5        30.14S WCI  25
DOUGLAS        CLOUDY    30  22  72 SE5       30.18R WCI  25

$$
WYZ021-027>030-104>119-262100-
SOUTHERN WYOMING

CITY           SKY/WX    TMP DP  RH WIND       PRES   REMARKS
EVANSTON       MOSUNNY   44  29  55 SW14      30.36R
FORT BRIDGER   FAIR      47  32  56 W25G32    30.36S
ROCK SPRINGS   MOSUNNY   44  30  57 W28G37    30.27S
DIXON          CLOUDY    47  30  53 SW13G22   30.30F
RAWLINS        SUNNY     46  30  53 W37G45    30.16S
SARATOGA       FAIR      45  30  57 SW31G44   30.19S
LARAMIE        SUNNY     44  28  53 W36G43    30.10S
CHEYENNE       MOSUNNY   30  23  75 S7        30.10F WCI  23
TORRINGTON     CLOUDY    29  26  89 CALM      30.20F
PINE BLUFFS    CLOUDY    30  23  74 SE5       30.18R WCI  25

$$



USA.gov is the U.S. government's official web portal to all federal, state and local government web resources and services.